SCP
0 0 0 0 0 0 0 0 0 0 0 0 0 0 0 0 0 0 0 0 0 -0 0 0 0 0 0 0 0 0 0 0 0 0 0 0 0 0 0 0 0 0 0 0 0 0 0 0 0 0 0 0 0 0
0 0 0 0 0 0 0 0 0 0 0 0 0 0 0 0 0 0 0 0 0 -0 0 0 0 0 0 0 0 0 0 0 0 0 0 0 0 0 0 0 0 0 0 0 0 0 0 0 0 0 0 0 0 0
0 0 0 0 0 0 0 0 0 0 0 0 0 0 0 0 0 0 0 0 0 -0 -0 0 0 0 0 0 0 0 0 0 0 0 0 0 0 0 0 0 0 0 0 0 0 0 0 0 0 0 0 0 0 0
0 0 0 0 0 0 0 0 0 0 0 0 0 0 0 0 0 0 0 0 0 0 0 0 0 0 0 0 0 0 0 0 0 0 0 0 0 0 0 0 0 0 0 0 0 0 0 0 0 0 0 -0 0 0
0 0 0 0 0 0 0 0 0 0 0 0 0 0 0 0 0 0 0 0 0 0 0 -0 0 0 0 0 0 0 0 0 0 0 0 0 0 0 0 0 0 0 0 0 -0 0 0 0 0 0 -0 0 -0 0
0 0 0 0 0 0 0 0 0 0 0 0 0 0 0 0 0 0 0 0 0 0 0 0 0 0 0 0 0 0 0 0 0 0 0 0 0 0 0 0 0 0 0 0 0 0 -0 0 0 0 0 -0 0 0
0 0 0 0 0 0 0 0 0 0 0 0 0 0 0 0 0 0 0 0 0 0 0 0 0 0 0 0 0 0 0 0 0 0 0 0 0 0 0 0 0 0 0 0 0 0 0 0 0 0 -0 0 0 0
0 0 0 0 0 0 0 0 0 0 0 0 0 0 0 0 0 0 0 0 0 0 0 0 0 0 0 0 0 0 0 0 0 0 0 0 0 0 0 0 0 0 0 0 0 0 0 0 0 0 0 -0 -0 0
0 0 0 0 0 0 0 0 0 0 0 0 0 0 0 0 0 0 0 0 0 0 0 0 0 0 0 0 0 0 0 0 0 0 0 0 0 0 0 0 0 0 0 0 0 0 0 0 0 -0 -0 -0 -0 0
0 0 0 0 0 0 0 0 0 0 0 0 0 0 0 0 0 -0 0 0 0 0 0 0 0 0 0 0 0 0 0 0 0 0 0 0 0 0 0 0 0 0 0 0 0 0 0 0 -0 -0 -0 0 -0 -0
0 0 0 0 0 0 0 0 0 0 0 0 0 0 0 0 -0 0 0 0 0 0 0 0 0 0 0 0 0 0 0 0 0 0 0 0 0 0 0 0 0 0 0 0 0 0 0 -0 -0 0 0 -0 -0 -0
0 0 0 0 0 0 0 0 0 0 0 0 0 0 0 0 0 0 0 0 0 0 0 0 0 0 0 0 0 0 0 0 0 0 0 0 0 0 0 0 0 0 0 0 0 0 0 0 0 0 0 -0 -0 -0
0 0 0 0 0 0 0 0 0 0 0 0 0 0 0 0 0 0 0 0 0 0 0 0 0 0 0 0 0 0 0 0 0 0 0 0 0 0 0 0 0 0 0 0 0 0 0 0 0 0 0 0 -0 0
0 0 0 0 0 0 0 0 0 0 0 0 0 0 0 0 0 0 0 0 0 0 0 0 0 0 0 0 0 0 0 0 0 0 0 0 0 0 0 0 0 0 0 0 0 0 0 0 0 0 0 -0 -0 0
0 0 0 0 0 0 0 0 0 0 0 0 0 0 0 0 0 0 0 0 0 0 0 0 0 0 0 0 0 0 0 0 0 0 0 0 0 0 0 0 0 0 0 0 0 0 0 0 0 0 0 0 0 0
0 0 0 0 0 0 0 0 0 0 0 0 0 0 0 0 0 0 0 0 0 0 0 0 0 0 0 0 0 0 0 0 0 0 0 0 0 0 0 0 0 0 0 0 0 0 0 0 0 0 0 0 0 0
0 0 0 0 0 0 0 0 0 0 0 0 -0 0 0 0 0 0 0 0 0 0 0 0 0 0 0 0 0 0 0 0 0 0 0 0 0 0 0 0 0 0 0 0 0 0 0 0 0 0 0 0 0 0
0 0 0 0 0 0 0 0 0 0 -0 -0 -0 0 0 0 0 0 0 0 0 0 0 0 0 0 0 0 0 0 0 0 0 0 0 0 0 0 0 0 0 0 0 0 0 0 0 0 0 0 0 0 0 0
0 0 0 0 0 0 0 0 0 -0 -0 -0 -0 -0 0 -0 0 0 0 0 0 0 0 0 -0 0 0 0 0 0 0 0 0 0 0 0 0 0 0 0 0 0 0 0 0 0 0 0 0 0 0 0 0 0
0 0 0 0 0 0 0 0 0 0 -0 -0 -0 -0 -0 0 -0 0 0 0 0 0 0 -0 -0 0 0 0 0 0 0 0 0 0 0 0 0 0 0 0 0 0 0 0 0 0 0 0 0 0 0 0 0 0
0 0 0 0 0 0 0 0 0 -0 -0 -0 0 -0 -0 -0 -0 -0 0 0 0 0 0 0 -0 0 0 0 -0 0 0 0 0 0 0 0 0 0 0 0 0 0 0 0 0 0 0 0 0 0 0 0 0 0
0 0 0 0 0 0 0 0 0 -0 -0 0 0 -0 -0 -0 -0 0 0 0 0 0 0 0 0 -0 -0 -0 0 0 0 0 0 0 0 0 0 0 0 0 0 0 0 0 0 0 0 0 0 0 0 0 0 0
0 0 0 0 0 0 -0 -0 -0 -0 -0 -0 -0 -0 -0 0 0 0 0 0 0 0 0 0 0 -0 -0 0 0 0 0 0 0 0 0 0 0 0 0 0 0 0 0 0 0 0 0 0 0 0 0 0 0 0
0 0 0 0 0 0 -0 -0 -0 -0 -0 0 0 -0 0 0 0 0 0 0 0 0 0 0 -0 -0 0 0 0 0 0 0 0 0 0 0 0 0 0 0 0 0 0 0 0 0 0 0 0 0 0 0 0 0
0 0 0 -0 -0 -0 -0 -0 -0 -0 0 0 0 0 0 0 0 0 0 0 0 0 0 0 0 0 0 0 0 0 0 0 0 0 0 0 0 0 0 0 0 0 0 0 0 0 0 0 0 0 -0 -0 -0 -0
0 0 -0 -0 -0 -0 -0 -0 0 0 0 0 0 0 0 0 0 0 0 0 0 0 0 -0 -0 -0 0 0 0 0 0 0 0 0 0 0 0 0 0 0 0 0 0 0 0 0 0 0 0 0 -0 -0 -0 -0
0 0 0 -0 -0 -0 -0 -0 -0 0 0 0 0 0 0 0 0 0 0 0 0 0 0 0 -0 0 0 0 0 0 0 0 0 0 0 0 0 0 0 0 -0 -0 0 0 0 0 0 0 0 0 0 0 0 0
0 0 0 -0 -0 0 0 0 0 0 0 0 0 0 0 0 0 0 0 0 0 0 -0 -0 -0 0 0 0 0 0 0 0 0 0 0 0 0 0 0 0 0 -0 0 0 0 0 0 0 0 0 0 0 0 0
0 0 0 0 0 0 0 0 0 0 0 0 0 0 0 0 0 0 0 0 0 0 0 0 0 0 0 0 0 0 0 0 0 0 0 0 0 0 0 0 0 0 0 0 0 0 0 0 0 0 0 0 0 0
0 0 0 0 0 0 0 0 0 0 0 0 0 0 0 0 0 0 0 0 0 0 0 0 0 0 0 0 0 0 0 0 0 0 0 0 0 0 0 0 0 0 0 0 0 0 0 0 0 0 0 0 0 0
0 0 0 0 0 0 0 0 0 0 0 0 0 0 0 0 0 0 0 0 0 0 0 0 0 0 0 0 0 0 0 0 0 0 0 0 0 0 0 0 0 0 0 0 0 0 0 0 0 0 0 0 0 0
0 0 0 0 0 0 0 0 0 0 0 0 0 0 0 0 0 0 0 0 0 0 0 0 0 0 0 0 0 0 0 0 0 0 0 0 0 0 0 0 0 0 0 0 0 0 0 0 0 0 0 0 0 0
0 0 0 0 0 0 0 0 0 0 0 0 0 0 0 0 0 0 0 0 0 0 0 0 0 0 0 0 0 0 0 0 0 0 0 0 0 0 0 0 0 0 0 0 0 0 0 0 0 0 0 0 0 0
Wind_Speed_500mb
50 49 47 43 39 41 36 35 30 29 27 29 25 19 15 18 25 20 28 24 29 10 43 33 30 15 24 7 4 20 9 10 7 5 4 5 6 5 8 7 7 8 9 3 5 7 6 4 12 11 10 26 54 52
53 52 49 47 43 41 40 37 35 30 28 30 30 22 16 12 22 11 18 34 23 21 24 25 35 37 42 32 31 9 5 6 3 4 5 2 5 4 6 4 7 3 9 10 9 7 6 9 8 11 39 57 44 47
54 53 52 48 46 42 42 39 37 34 30 31 32 27 19 12 23 22 19 25 28 21 50 51 35 19 25 20 16 7 3 18 10 19 8 5 5 7 6 3 8 5 5 8 4 9 8 13 31 32 38 44 42 37
54 53 53 50 50 47 42 42 38 37 34 32 33 31 23 18 18 29 24 19 26 5 9 17 11 24 13 28 28 31 30 26 19 17 12 8 5 7 6 9 7 6 10 10 4 4 13 20 33 37 34 36 37 36
55 54 53 53 53 50 46 43 39 38 35 33 32 32 27 21 17 31 29 19 31 14 7 23 40 32 24 19 12 16 19 22 14 4 4 6 5 8 5 5 4 12 13 9 11 40 14 36 42 35 35 36 35 41
55 54 54 53 53 51 49 45 41 38 37 35 32 31 28 23 17 17 8 31 38 20 9 7 21 25 26 26 20 18 19 13 9 8 10 4 2 6 7 3 6 14 22 11 6 54 15 52 47 34 34 36 33 39
55 54 54 55 54 53 50 46 43 39 38 36 31 27 24 23 20 32 10 20 47 23 6 12 15 12 15 24 20 23 25 14 10 8 7 4 5 7 6 6 12 14 24 20 31 54 41 58 50 41 36 38 34 43
56 55 53 55 55 54 50 48 45 41 37 35 30 28 22 19 27 49 31 22 45 30 9 5 8 14 17 15 10 16 10 15 10 8 4 6 5 5 3 5 20 20 29 38 60 34 43 59 49 48 46 45 49 53
61 57 56 54 57 55 53 51 46 44 38 35 29 22 17 14 17 31 46 19 48 20 8 9 5 7 14 15 14 11 9 2 6 1 5 5 2 3 11 33 39 44 36 55 51 15 53 60 58 57 53 50 53 56
60 59 58 56 60 57 56 54 49 46 40 34 32 14 10 14 30 26 20 17 22 18 14 9 9 7 3 11 9 5 5 4 3 7 6 6 6 11 11 33 42 46 39 65 49 55 63 67 66 63 59 46 39 54
62 62 58 60 63 61 59 57 53 47 42 40 21 14 9 9 13 11 13 18 19 9 18 18 24 5 3 6 8 16 6 5 6 8 9 1 5 9 28 41 49 40 43 55 28 34 57 58 67 67 58 43 35 45
64 61 63 65 66 65 64 60 58 57 37 31 18 22 8 14 12 10 8 9 10 13 21 28 31 23 11 8 5 8 7 4 10 11 8 5 8 22 45 50 54 40 45 45 30 39 48 44 51 54 50 44 39 37
63 65 67 70 71 68 66 62 60 57 37 34 9 8 7 9 9 13 14 7 8 11 27 28 10 22 15 8 7 4 6 9 15 5 8 10 15 40 55 59 55 46 46 37 39 41 40 46 46 46 43 41 41 39
68 68 71 74 72 69 66 63 65 54 46 11 11 8 9 11 11 9 5 6 13 21 50 47 22 14 13 1 5 8 4 7 6 9 11 7 36 54 63 70 63 61 53 49 49 45 43 45 46 41 37 44 44 38
70 71 74 73 73 69 67 68 67 53 14 11 11 10 15 15 21 15 27 21 20 35 57 31 14 14 5 5 6 5 6 8 10 12 7 26 45 63 72 70 67 68 61 54 51 47 43 42 42 40 40 42 38 36
73 71 74 74 72 70 70 70 63 30 8 8 12 9 17 7 11 18 24 37 32 38 48 19 8 7 4 3 6 13 15 13 8 8 20 41 59 71 78 74 72 69 59 53 52 46 43 41 41 42 42 40 37 35
77 56 81 76 72 71 72 58 40 15 13 10 11 22 31 31 24 27 13 15 25 42 7 9 8 4 1 6 8 9 11 8 22 31 40 57 73 81 79 77 72 65 60 55 51 48 41 40 39 38 40 41 40 41
64 81 80 78 78 72 65 33 14 12 13 16 11 13 26 33 25 29 26 17 10 31 21 8 17 8 6 6 7 7 9 13 26 39 53 64 73 79 80 76 69 66 61 56 50 45 41 41 38 35 35 40 44 42
79 85 81 80 82 53 22 19 15 7 17 13 14 27 34 38 46 44 47 36 27 24 32 14 8 7 7 17 18 18 26 31 38 43 53 62 74 81 76 70 70 66 57 50 45 41 36 29 27 31 35 40 43 41
74 75 74 82 61 20 9 7 15 8 8 8 14 25 25 26 38 44 41 33 28 33 15 9 9 11 36 57 50 38 38 47 57 59 59 69 77 76 72 71 67 59 48 42 38 37 36 32 26 27 28 33 37 39
68 65 66 74 39 7 10 9 12 10 12 14 20 18 17 28 26 35 48 36 22 26 8 21 45 36 38 67 58 53 47 57 71 75 87 82 79 77 74 68 60 51 45 45 44 37 26 21 24 27 30 29 27 27
68 67 58 43 15 7 6 14 9 7 7 16 17 16 15 9 16 23 18 22 21 19 20 29 23 34 26 38 36 46 57 63 62 62 71 84 84 81 75 66 56 48 42 39 33 28 28 24 25 30 31 35 31 30
60 38 20 18 6 4 5 12 8 9 6 9 15 8 10 13 25 37 8 10 12 33 31 22 21 18 20 25 42 53 56 58 58 61 71 75 72 66 62 56 43 36 40 37 29 28 28 24 29 34 37 34 35 34
45 22 13 16 15 7 9 11 11 11 9 5 9 10 9 16 35 8 7 13 22 34 43 27 17 10 26 43 55 55 51 48 54 61 67 67 67 64 54 45 37 32 36 38 35 34 27 25 31 33 34 35 39 33
12 15 10 11 14 9 10 9 10 8 8 11 10 9 8 14 6 6 8 15 36 39 24 31 43 23 58 63 55 48 42 43 53 63 62 56 59 56 47 36 34 37 38 37 38 37 32 30 30 32 33 31 30 31
8 15 14 16 9 10 10 6 11 12 6 8 13 8 3 5 5 7 5 37 49 59 47 62 58 53 58 55 55 48 46 42 48 56 56 55 56 57 52 53 51 46 36 26 25 32 32 29 32 34 34 30 26 25
8 10 16 17 8 7 7 12 11 11 14 14 5 6 2 5 6 3 23 38 52 54 49 48 58 67 56 54 49 45 46 44 42 47 48 43 38 40 51 48 42 36 32 30 20 19 23 27 28 32 26 21 22 22
12 7 9 11 12 18 8 9 16 15 8 17 7 15 10 8 8 13 26 54 49 61 65 49 52 49 55 54 52 54 54 51 50 50 48 43 38 43 31 27 27 27 27 23 23 20 16 17 21 27 20 18 19 17
12 12 13 10 18 17 16 8 9 6 7 6 5 5 5 10 18 46 52 61 66 63 68 61 53 56 56 55 53 58 61 60 61 58 53 49 49 37 34 36 32 26 23 26 23 18 18 19 14 17 18 19 20 24
13 27 10 10 10 4 5 10 9 18 17 19 19 30 39 41 34 41 49 51 59 54 61 65 63 61 62 61 62 59 52 50 42 42 49 50 46 44 44 33 26 22 21 23 22 23 27 28 25 21 21 20 19 18
15 30 19 9 7 21 34 38 42 45 40 30 33 44 43 34 35 30 39 50 52 59 63 63 59 58 63 61 61 60 61 51 34 28 28 39 41 39 34 29 26 25 22 19 17 16 19 19 16 15 17 17 16 12
21 9 11 8 8 23 34 36 35 26 19 28 30 32 34 28 18 14 22 34 54 50 52 53 56 59 54 49 46 44 38 43 37 29 35 40 39 34 30 29 26 25 26 24 18 14 13 11 12 14 17 17 15 14
7 14 18 17 9 9 14 16 12 14 24 17 22 31 22 13 12 11 17 25 47 58 58 53 52 51 49 44 42 42 42 39 36 34 30 32 35 33 28 31 36 34 25 18 17 17 15 14 13 10 9 10 12 14
Wind_Direction_500mb
250 245 242 235 234 234 235 233 233 232 230 224 221 232 246 226 214 209 219 222 204 237 268 269 276 309 331 344 330 321 343 359 31 45 130 207 120 197 90 148 172 144 125 158 95 92 231 129 140 170 186 138 167 176
246 242 236 231 227 231 230 231 229 228 228 224 220 222 234 236 215 213 208 212 212 247 265 269 264 266 279 296 274 292 313 312 47 19 335 42 105 93 142 146 43 58 169 173 173 210 283 252 237 176 151 155 165 175
240 236 229 230 224 224 226 227 225 222 224 223 217 219 229 236 220 225 184 170 210 261 286 274 272 293 289 304 272 275 52 6 358 1 315 288 112 134 127 217 107 77 149 95 91 337 15 126 135 139 147 151 158 165
233 230 230 229 222 217 221 222 221 216 219 220 216 217 221 227 229 224 224 198 189 243 272 283 263 256 257 299 278 244 249 278 306 252 230 248 156 179 172 148 125 172 110 122 70 19 116 150 148 145 140 142 148 152
228 227 227 223 218 213 215 216 216 213 215 217 215 215 218 226 249 225 223 211 198 212 300 297 285 257 261 275 276 237 245 263 296 288 219 244 173 109 41 91 118 183 161 156 214 188 168 179 162 159 150 151 156 153
224 222 217 215 212 209 209 210 210 207 208 212 212 213 214 222 259 203 245 225 198 215 302 308 320 279 268 253 247 240 251 279 254 268 255 254 125 103 96 139 206 195 198 197 196 172 195 166 164 166 155 157 154 158
216 214 214 212 208 205 204 205 205 203 202 206 207 208 219 224 218 187 192 167 186 173 261 298 290 271 254 232 228 235 253 242 244 270 248 176 65 69 102 157 184 172 181 197 164 157 143 164 165 167 161 153 152 158
211 211 210 207 204 201 199 199 198 199 199 200 198 201 215 241 227 212 180 135 177 181 226 254 268 302 190 171 193 218 218 204 233 271 231 130 93 52 107 199 161 157 160 161 161 174 178 166 161 167 162 156 159 161
210 210 206 204 201 197 194 194 193 193 192 191 190 196 209 251 224 224 226 227 181 197 217 206 224 246 187 191 180 192 219 197 235 224 226 121 343 188 214 171 172 167 164 168 166 167 164 162 165 169 166 168 168 172
205 204 202 200 196 193 190 189 187 187 183 179 175 168 209 226 220 236 229 193 176 203 221 232 231 247 257 179 175 166 203 203 178 248 131 74 223 261 231 196 182 173 177 169 152 153 166 166 173 173 175 175 178 179
202 200 200 196 191 188 186 183 183 178 172 176 179 208 229 224 187 196 238 173 183 187 206 216 212 223 350 167 196 199 198 166 155 245 130 191 256 236 183 184 185 182 182 184 192 188 182 177 177 177 175 176 176 175
196 198 194 188 185 183 181 181 179 177 173 172 170 195 193 180 184 209 250 147 170 206 192 184 211 204 249 262 182 205 183 117 198 152 106 176 251 192 189 189 185 185 182 180 188 180 178 183 181 177 172 175 175 177
191 187 184 180 179 178 178 178 177 172 164 165 197 183 226 198 201 203 202 205 172 191 165 159 162 174 212 263 259 174 172 198 125 90 197 216 188 190 189 187 180 178 176 173 165 167 172 179 181 179 176 182 183 184
181 180 177 177 176 176 175 173 170 170 162 178 173 220 212 201 227 207 233 210 203 180 162 159 139 160 205 142 225 174 214 111 122 152 217 224 191 186 187 183 175 174 176 167 165 166 167 173 176 181 186 189 190 189
175 173 173 172 173 172 171 170 171 171 168 167 181 227 221 241 256 248 258 282 236 191 165 139 119 155 144 270 226 117 132 223 185 203 221 190 187 183 178 176 178 174 175 171 167 168 170 177 183 185 185 187 192 187
167 165 171 169 168 168 169 169 174 174 206 199 227 249 241 271 272 256 265 265 242 189 164 149 121 127 187 234 249 214 146 195 217 210 181 179 178 179 176 178 177 174 174 172 172 171 176 181 183 182 179 185 190 193
162 164 165 166 165 166 168 165 171 174 206 224 240 234 260 279 264 281 321 290 222 185 160 121 82 138 318 245 247 183 192 199 184 184 187 186 182 177 175 173 174 175 174 174 174 176 176 180 184 187 183 183 189 187
161 160 159 162 163 159 166 181 182 198 232 243 242 252 251 258 268 278 291 308 258 209 172 138 131 142 197 253 260 220 204 172 185 190 183 181 179 175 173 173 176 176 174 173 176 176 181 181 186 190 192 190 187 191
159 159 162 164 159 153 163 189 188 230 240 259 264 274 265 271 274 275 284 297 277 280 166 138 135 174 206 234 239 221 178 174 174 174 176 177 175 172 173 174 173 173 174 176 179 178 179 183 191 198 199 198 200 195
159 159 164 161 156 150 151 158 186 271 264 241 252 260 251 251 266 265 268 282 290 191 167 156 162 239 230 224 239 256 212 193 176 157 161 169 173 174 173 172 171 172 172 169 168 169 170 174 180 184 186 189 189 183
153 158 161 163 182 160 170 176 201 226 249 257 261 255 260 231 241 256 268 254 236 206 161 173 165 235 242 245 264 260 220 190 182 176 170 169 172 174 171 172 172 171 174 174 174 172 176 177 176 175 170 157 154 160
154 157 160 175 194 217 249 221 221 203 238 259 262 227 251 236 207 226 229 189 198 197 180 168 166 215 244 262 253 214 190 180 177 173 173 172 168 172 172 172 171 174 176 178 177 176 167 171 172 172 170 166 164 167
153 167 146 182 265 250 241 203 200 211 237 288 295 221 217 217 196 172 132 143 192 189 194 198 193 226 215 206 193 177 179 181 175 175 172 175 174 173 173 174 177 179 178 175 171 169 164 164 170 167 162 165 165 162
165 155 164 185 208 233 201 213 204 202 203 160 266 235 210 188 158 120 127 153 173 160 200 205 202 162 168 170 172 168 173 181 172 171 174 173 171 173 176 174 178 185 178 165 162 158 153 153 161 168 171 171 174 172
165 196 208 199 200 211 221 201 185 193 220 189 257 242 195 161 130 135 143 137 159 183 204 190 185 215 177 176 159 160 167 180 171 165 169 174 170 167 169 170 168 169 165 159 162 162 153 153 149 155 160 165 172 182
218 198 199 208 199 215 209 202 200 199 161 236 238 290 79 117 112 123 189 152 157 182 193 199 207 191 187 159 154 158 163 171 165 164 166 174 176 172 167 164 164 168 169 169 161 172 174 171 168 161 160 158 163 177
232 228 219 217 217 218 223 243 223 283 211 210 129 10 254 159 105 117 138 145 176 179 177 182 187 173 151 150 148 149 150 154 160 160 158 168 181 182 171 168 166 160 165 174 179 179 182 190 187 183 183 199 206 207
241 223 207 188 224 236 243 228 213 183 156 93 156 208 170 127 170 130 145 147 159 201 223 230 200 163 149 145 144 146 148 141 137 141 144 151 161 164 170 173 165 162 159 167 169 159 156 168 185 191 199 198 196 195
223 224 200 222 219 237 223 278 336 33 118 168 107 73 97 60 113 127 126 154 171 194 194 180 158 153 150 149 147 152 153 153 151 151 153 156 163 168 168 170 167 165 167 164 163 165 161 157 160 193 209 219 225 229
235 206 217 251 214 227 268 239 201 126 90 98 100 102 89 88 104 134 142 146 164 162 158 156 156 161 162 159 160 166 168 170 166 153 156 163 165 164 167 170 166 161 168 181 185 176 181 195 205 217 221 228 241 246
200 201 218 214 91 108 92 101 102 101 101 88 108 116 120 114 100 105 144 155 150 158 156 158 162 163 162 165 168 168 171 175 166 160 160 160 164 164 167 170 169 170 176 182 178 172 172 173 185 199 196 190 194 214
200 183 136 108 122 118 82 73 75 74 66 77 73 97 120 119 78 76 95 142 153 158 166 163 164 166 171 169 169 171 165 160 162 161 164 160 153 153 162 171 173 169 157 153 157 175 172 175 176 178 199 207 207 211
2 53 79 85 83 82 98 102 85 70 60 56 47 59 57 66 65 74 123 152 168 168 171 169 167 163 161 164 167 166 163 158 156 149 145 147 148 145 141 155 153 153 153 154 153 157 160 164 179 195 204 218 242 260
Wind_Speed_850mb
50 49 47 43 39 41 36 35 30 29 27 29 25 19 15 18 25 20 28 24 29 10 43 33 30 15 24 7 4 20 9 10 7 5 4 5 6 5 8 7 7 8 9 3 5 7 6 4 12 11 10 26 54 52
53 52 49 47 43 41 40 37 35 30 28 30 30 22 16 12 22 11 18 34 23 21 24 25 35 37 42 32 31 9 5 6 3 4 5 2 5 4 6 4 7 3 9 10 9 7 6 9 8 11 39 57 44 47
54 53 52 48 46 42 42 39 37 34 30 31 32 27 19 12 23 22 19 25 28 21 50 51 35 19 25 20 16 7 3 18 10 19 8 5 5 7 6 3 8 5 5 8 4 9 8 13 31 32 38 44 42 37
54 53 53 50 50 47 42 42 38 37 34 32 33 31 23 18 18 29 24 19 26 5 9 17 11 24 13 28 28 31 30 26 19 17 12 8 5 7 6 9 7 6 10 10 4 4 13 20 33 37 34 36 37 36
55 54 53 53 53 50 46 43 39 38 35 33 32 32 27 21 17 31 29 19 31 14 7 23 40 32 24 19 12 16 19 22 14 4 4 6 5 8 5 5 4 12 13 9 11 40 14 36 42 35 35 36 35 41
55 54 54 53 53 51 49 45 41 38 37 35 32 31 28 23 17 17 8 31 38 20 9 7 21 25 26 26 20 18 19 13 9 8 10 4 2 6 7 3 6 14 22 11 6 54 15 52 47 34 34 36 33 39
55 54 54 55 54 53 50 46 43 39 38 36 31 27 24 23 20 32 10 20 47 23 6 12 15 12 15 24 20 23 25 14 10 8 7 4 5 7 6 6 12 14 24 20 31 54 41 58 50 41 36 38 34 43
56 55 53 55 55 54 50 48 45 41 37 35 30 28 22 19 27 49 31 22 45 30 9 5 8 14 17 15 10 16 10 15 10 8 4 6 5 5 3 5 20 20 29 38 60 34 43 59 49 48 46 45 49 53
61 57 56 54 57 55 53 51 46 44 38 35 29 22 17 14 17 31 46 19 48 20 8 9 5 7 14 15 14 11 9 2 6 1 5 5 2 3 11 33 39 44 36 55 51 15 53 60 58 57 53 50 53 56
60 59 58 56 60 57 56 54 49 46 40 34 32 14 10 14 30 26 20 17 22 18 14 9 9 7 3 11 9 5 5 4 3 7 6 6 6 11 11 33 42 46 39 65 49 55 63 67 66 63 59 46 39 54
62 62 58 60 63 61 59 57 53 47 42 40 21 14 9 9 13 11 13 18 19 9 18 18 24 5 3 6 8 16 6 5 6 8 9 1 5 9 28 41 49 40 43 55 28 34 57 58 67 67 58 43 35 45
64 61 63 65 66 65 64 60 58 57 37 31 18 22 8 14 12 10 8 9 10 13 21 28 31 23 11 8 5 8 7 4 10 11 8 5 8 22 45 50 54 40 45 45 30 39 48 44 51 54 50 44 39 37
63 65 67 70 71 68 66 62 60 57 37 34 9 8 7 9 9 13 14 7 8 11 27 28 10 22 15 8 7 4 6 9 15 5 8 10 15 40 55 59 55 46 46 37 39 41 40 46 46 46 43 41 41 39
68 68 71 74 72 69 66 63 65 54 46 11 11 8 9 11 11 9 5 6 13 21 50 47 22 14 13 1 5 8 4 7 6 9 11 7 36 54 63 70 63 61 53 49 49 45 43 45 46 41 37 44 44 38
70 71 74 73 73 69 67 68 67 53 14 11 11 10 15 15 21 15 27 21 20 35 57 31 14 14 5 5 6 5 6 8 10 12 7 26 45 63 72 70 67 68 61 54 51 47 43 42 42 40 40 42 38 36
73 71 74 74 72 70 70 70 63 30 8 8 12 9 17 7 11 18 24 37 32 38 48 19 8 7 4 3 6 13 15 13 8 8 20 41 59 71 78 74 72 69 59 53 52 46 43 41 41 42 42 40 37 35
77 56 81 76 72 71 72 58 40 15 13 10 11 22 31 31 24 27 13 15 25 42 7 9 8 4 1 6 8 9 11 8 22 31 40 57 73 81 79 77 72 65 60 55 51 48 41 40 39 38 40 41 40 41
64 81 80 78 78 72 65 33 14 12 13 16 11 13 26 33 25 29 26 17 10 31 21 8 17 8 6 6 7 7 9 13 26 39 53 64 73 79 80 76 69 66 61 56 50 45 41 41 38 35 35 40 44 42
79 85 81 80 82 53 22 19 15 7 17 13 14 27 34 38 46 44 47 36 27 24 32 14 8 7 7 17 18 18 26 31 38 43 53 62 74 81 76 70 70 66 57 50 45 41 36 29 27 31 35 40 43 41
74 75 74 82 61 20 9 7 15 8 8 8 14 25 25 26 38 44 41 33 28 33 15 9 9 11 36 57 50 38 38 47 57 59 59 69 77 76 72 71 67 59 48 42 38 37 36 32 26 27 28 33 37 39
68 65 66 74 39 7 10 9 12 10 12 14 20 18 17 28 26 35 48 36 22 26 8 21 45 36 38 67 58 53 47 57 71 75 87 82 79 77 74 68 60 51 45 45 44 37 26 21 24 27 30 29 27 27
68 67 58 43 15 7 6 14 9 7 7 16 17 16 15 9 16 23 18 22 21 19 20 29 23 34 26 38 36 46 57 63 62 62 71 84 84 81 75 66 56 48 42 39 33 28 28 24 25 30 31 35 31 30
60 38 20 18 6 4 5 12 8 9 6 9 15 8 10 13 25 37 8 10 12 33 31 22 21 18 20 25 42 53 56 58 58 61 71 75 72 66 62 56 43 36 40 37 29 28 28 24 29 34 37 34 35 34
45 22 13 16 15 7 9 11 11 11 9 5 9 10 9 16 35 8 7 13 22 34 43 27 17 10 26 43 55 55 51 48 54 61 67 67 67 64 54 45 37 32 36 38 35 34 27 25 31 33 34 35 39 33
12 15 10 11 14 9 10 9 10 8 8 11 10 9 8 14 6 6 8 15 36 39 24 31 43 23 58 63 55 48 42 43 53 63 62 56 59 56 47 36 34 37 38 37 38 37 32 30 30 32 33 31 30 31
8 15 14 16 9 10 10 6 11 12 6 8 13 8 3 5 5 7 5 37 49 59 47 62 58 53 58 55 55 48 46 42 48 56 56 55 56 57 52 53 51 46 36 26 25 32 32 29 32 34 34 30 26 25
8 10 16 17 8 7 7 12 11 11 14 14 5 6 2 5 6 3 23 38 52 54 49 48 58 67 56 54 49 45 46 44 42 47 48 43 38 40 51 48 42 36 32 30 20 19 23 27 28 32 26 21 22 22
12 7 9 11 12 18 8 9 16 15 8 17 7 15 10 8 8 13 26 54 49 61 65 49 52 49 55 54 52 54 54 51 50 50 48 43 38 43 31 27 27 27 27 23 23 20 16 17 21 27 20 18 19 17
12 12 13 10 18 17 16 8 9 6 7 6 5 5 5 10 18 46 52 61 66 63 68 61 53 56 56 55 53 58 61 60 61 58 53 49 49 37 34 36 32 26 23 26 23 18 18 19 14 17 18 19 20 24
13 27 10 10 10 4 5 10 9 18 17 19 19 30 39 41 34 41 49 51 59 54 61 65 63 61 62 61 62 59 52 50 42 42 49 50 46 44 44 33 26 22 21 23 22 23 27 28 25 21 21 20 19 18
15 30 19 9 7 21 34 38 42 45 40 30 33 44 43 34 35 30 39 50 52 59 63 63 59 58 63 61 61 60 61 51 34 28 28 39 41 39 34 29 26 25 22 19 17 16 19 19 16 15 17 17 16 12
21 9 11 8 8 23 34 36 35 26 19 28 30 32 34 28 18 14 22 34 54 50 52 53 56 59 54 49 46 44 38 43 37 29 35 40 39 34 30 29 26 25 26 24 18 14 13 11 12 14 17 17 15 14
7 14 18 17 9 9 14 16 12 14 24 17 22 31 22 13 12 11 17 25 47 58 58 53 52 51 49 44 42 42 42 39 36 34 30 32 35 33 28 31 36 34 25 18 17 17 15 14 13 10 9 10 12 14
Wind_Direction_850mb
250 245 242 235 234 234 235 233 233 232 230 224 221 232 246 226 214 209 219 222 204 237 268 269 276 309 331 344 330 321 343 359 31 45 130 207 120 197 90 148 172 144 125 158 95 92 231 129 140 170 186 138 167 176
246 242 236 231 227 231 230 231 229 228 228 224 220 222 234 236 215 213 208 212 212 247 265 269 264 266 279 296 274 292 313 312 47 19 335 42 105 93 142 146 43 58 169 173 173 210 283 252 237 176 151 155 165 175
240 236 229 230 224 224 226 227 225 222 224 223 217 219 229 236 220 225 184 170 210 261 286 274 272 293 289 304 272 275 52 6 358 1 315 288 112 134 127 217 107 77 149 95 91 337 15 126 135 139 147 151 158 165
233 230 230 229 222 217 221 222 221 216 219 220 216 217 221 227 229 224 224 198 189 243 272 283 263 256 257 299 278 244 249 278 306 252 230 248 156 179 172 148 125 172 110 122 70 19 116 150 148 145 140 142 148 152
228 227 227 223 218 213 215 216 216 213 215 217 215 215 218 226 249 225 223 211 198 212 300 297 285 257 261 275 276 237 245 263 296 288 219 244 173 109 41 91 118 183 161 156 214 188 168 179 162 159 150 151 156 153
224 222 217 215 212 209 209 210 210 207 208 212 212 213 214 222 259 203 245 225 198 215 302 308 320 279 268 253 247 240 251 279 254 268 255 254 125 103 96 139 206 195 198 197 196 172 195 166 164 166 155 157 154 158
216 214 214 212 208 205 204 205 205 203 202 206 207 208 219 224 218 187 192 167 186 173 261 298 290 271 254 232 228 235 253 242 244 270 248 176 65 69 102 157 184 172 181 197 164 157 143 164 165 167 161 153 152 158
211 211 210 207 204 201 199 199 198 199 199 200 198 201 215 241 227 212 180 135 177 181 226 254 268 302 190 171 193 218 218 204 233 271 231 130 93 52 107 199 161 157 160 161 161 174 178 166 161 167 162 156 159 161
210 210 206 204 201 197 194 194 193 193 192 191 190 196 209 251 224 224 226 227 181 197 217 206 224 246 187 191 180 192 219 197 235 224 226 121 343 188 214 171 172 167 164 168 166 167 164 162 165 169 166 168 168 172
205 204 202 200 196 193 190 189 187 187 183 179 175 168 209 226 220 236 229 193 176 203 221 232 231 247 257 179 175 166 203 203 178 248 131 74 223 261 231 196 182 173 177 169 152 153 166 166 173 173 175 175 178 179
202 200 200 196 191 188 186 183 183 178 172 176 179 208 229 224 187 196 238 173 183 187 206 216 212 223 350 167 196 199 198 166 155 245 130 191 256 236 183 184 185 182 182 184 192 188 182 177 177 177 175 176 176 175
196 198 194 188 185 183 181 181 179 177 173 172 170 195 193 180 184 209 250 147 170 206 192 184 211 204 249 262 182 205 183 117 198 152 106 176 251 192 189 189 185 185 182 180 188 180 178 183 181 177 172 175 175 177
191 187 184 180 179 178 178 178 177 172 164 165 197 183 226 198 201 203 202 205 172 191 165 159 162 174 212 263 259 174 172 198 125 90 197 216 188 190 189 187 180 178 176 173 165 167 172 179 181 179 176 182 183 184
181 180 177 177 176 176 175 173 170 170 162 178 173 220 212 201 227 207 233 210 203 180 162 159 139 160 205 142 225 174 214 111 122 152 217 224 191 186 187 183 175 174 176 167 165 166 167 173 176 181 186 189 190 189
175 173 173 172 173 172 171 170 171 171 168 167 181 227 221 241 256 248 258 282 236 191 165 139 119 155 144 270 226 117 132 223 185 203 221 190 187 183 178 176 178 174 175 171 167 168 170 177 183 185 185 187 192 187
167 165 171 169 168 168 169 169 174 174 206 199 227 249 241 271 272 256 265 265 242 189 164 149 121 127 187 234 249 214 146 195 217 210 181 179 178 179 176 178 177 174 174 172 172 171 176 181 183 182 179 185 190 193
162 164 165 166 165 166 168 165 171 174 206 224 240 234 260 279 264 281 321 290 222 185 160 121 82 138 318 245 247 183 192 199 184 184 187 186 182 177 175 173 174 175 174 174 174 176 176 180 184 187 183 183 189 187
161 160 159 162 163 159 166 181 182 198 232 243 242 252 251 258 268 278 291 308 258 209 172 138 131 142 197 253 260 220 204 172 185 190 183 181 179 175 173 173 176 176 174 173 176 176 181 181 186 190 192 190 187 191
159 159 162 164 159 153 163 189 188 230 240 259 264 274 265 271 274 275 284 297 277 280 166 138 135 174 206 234 239 221 178 174 174 174 176 177 175 172 173 174 173 173 174 176 179 178 179 183 191 198 199 198 200 195
159 159 164 161 156 150 151 158 186 271 264 241 252 260 251 251 266 265 268 282 290 191 167 156 162 239 230 224 239 256 212 193 176 157 161 169 173 174 173 172 171 172 172 169 168 169 170 174 180 184 186 189 189 183
153 158 161 163 182 160 170 176 201 226 249 257 261 255 260 231 241 256 268 254 236 206 161 173 165 235 242 245 264 260 220 190 182 176 170 169 172 174 171 172 172 171 174 174 174 172 176 177 176 175 170 157 154 160
154 157 160 175 194 217 249 221 221 203 238 259 262 227 251 236 207 226 229 189 198 197 180 168 166 215 244 262 253 214 190 180 177 173 173 172 168 172 172 172 171 174 176 178 177 176 167 171 172 172 170 166 164 167
153 167 146 182 265 250 241 203 200 211 237 288 295 221 217 217 196 172 132 143 192 189 194 198 193 226 215 206 193 177 179 181 175 175 172 175 174 173 173 174 177 179 178 175 171 169 164 164 170 167 162 165 165 162
165 155 164 185 208 233 201 213 204 202 203 160 266 235 210 188 158 120 127 153 173 160 200 205 202 162 168 170 172 168 173 181 172 171 174 173 171 173 176 174 178 185 178 165 162 158 153 153 161 168 171 171 174 172
165 196 208 199 200 211 221 201 185 193 220 189 257 242 195 161 130 135 143 137 159 183 204 190 185 215 177 176 159 160 167 180 171 165 169 174 170 167 169 170 168 169 165 159 162 162 153 153 149 155 160 165 172 182
218 198 199 208 199 215 209 202 200 199 161 236 238 290 79 117 112 123 189 152 157 182 193 199 207 191 187 159 154 158 163 171 165 164 166 174 176 172 167 164 164 168 169 169 161 172 174 171 168 161 160 158 163 177
232 228 219 217 217 218 223 243 223 283 211 210 129 10 254 159 105 117 138 145 176 179 177 182 187 173 151 150 148 149 150 154 160 160 158 168 181 182 171 168 166 160 165 174 179 179 182 190 187 183 183 199 206 207
241 223 207 188 224 236 243 228 213 183 156 93 156 208 170 127 170 130 145 147 159 201 223 230 200 163 149 145 144 146 148 141 137 141 144 151 161 164 170 173 165 162 159 167 169 159 156 168 185 191 199 198 196 195
223 224 200 222 219 237 223 278 336 33 118 168 107 73 97 60 113 127 126 154 171 194 194 180 158 153 150 149 147 152 153 153 151 151 153 156 163 168 168 170 167 165 167 164 163 165 161 157 160 193 209 219 225 229
235 206 217 251 214 227 268 239 201 126 90 98 100 102 89 88 104 134 142 146 164 162 158 156 156 161 162 159 160 166 168 170 166 153 156 163 165 164 167 170 166 161 168 181 185 176 181 195 205 217 221 228 241 246
200 201 218 214 91 108 92 101 102 101 101 88 108 116 120 114 100 105 144 155 150 158 156 158 162 163 162 165 168 168 171 175 166 160 160 160 164 164 167 170 169 170 176 182 178 172 172 173 185 199 196 190 194 214
200 183 136 108 122 118 82 73 75 74 66 77 73 97 120 119 78 76 95 142 153 158 166 163 164 166 171 169 169 171 165 160 162 161 164 160 153 153 162 171 173 169 157 153 157 175 172 175 176 178 199 207 207 211
2 53 79 85 83 82 98 102 85 70 60 56 47 59 57 66 65 74 123 152 168 168 171 169 167 163 161 164 167 166 163 158 156 149 145 147 148 145 141 155 153 153 153 154 153 157 160 164 179 195 204 218 242 260